This demonstration page uses our WeatherBlox Daily Observations layout. Learn more.

Left ArrowRight Arrow

39.51506, -84.39828

Hourly Observations for July 24, 2015

Temp ( °F °C ) Dew Point ( °F °C ) Humidity (%) Winds ( mph kmh ) Pressure ( in mb ) Visibility ( mi km ) Precip ( " mm )
12:15 am 00:15 Clear 67 19.5 62 16.9 85 85 N N/A 30.00 1016 10 16 N/A
12:35 am 00:35 Clear 64 18 60 15.7 87 87 N N/A 30.00 1016 10 16 N/A
12:55 am 00:55 Clear 64 18 60 15.8 87 87 N N/A 30.00 1016 10 16 N/A
1:15 am 01:15 Clear 64 18 60 15.7 87 87 N N/A 30.00 1016 10 16 N/A
1:35 am 01:35 Clear 64 18 60 15.8 87 87 N N/A 30.00 1016 10 16 N/A
1:55 am 01:55 Clear 64 17.8 60 15.6 87 87 N N/A 30.00 1016 10 16 N/A
2:15 am 02:15 Clear 63 17.2 59 15 87 87 N N/A 30.00 1016 10 16 N/A
2:35 am 02:35 Clear 63 17.1 59 15.1 88 88 N N/A 30.00 1016 10 16 N/A
2:55 am 02:55 Clear 63 17.1 59 15 88 88 N 3 6 30.00 1016 10 16 N/A
3:15 am 03:15 Clear 62 16.7 58 14.6 88 88 N N/A 30.00 1016 10 16 N/A
3:35 am 03:35 Clear 62 16.6 58 14.6 88 88 N N/A 30.00 1016 10 16 N/A
3:55 am 03:55 Clear 62 16.6 58 14.6 88 88 N N/A 30.00 1016 10 16 N/A
4:15 am 04:15 Clear 62 16.6 58 14.7 89 89 NNE 3 6 30.00 1016 10 16 N/A
4:35 am 04:35 Clear 61 16.1 57 14.1 88 88 N 3 6 30.00 1016 10 16 N/A
4:55 am 04:55 Clear 62 16.7 59 14.8 89 89 NNE 3 6 30.00 1016 10 16 N/A
5:15 am 05:15 Clear 62 16.6 58 14.5 88 88 NNE 3 6 30.00 1016 10 16 N/A
5:35 am 05:35 Clear 63 17.2 59 15 87 87 N N/A 30.03 1017 10 16 N/A
5:55 am 05:55 Clear 62 16.8 58 14.7 88 88 NNE 3 6 30.03 1017 10 16 N/A
6:15 am 06:15 Clear 62 16.6 58 14.6 88 88 N N/A 30.03 1017 10 16 N/A
6:35 am 06:35 Sunny 62 16.6 58 14.6 88 88 N N/A 30.03 1017 10 16 N/A
6:55 am 06:55 Sunny 62 16.6 58 14.6 88 88 N N/A 30.03 1017 10 16 N/A
7:15 am 07:15 Sunny 62 16.7 58 14.6 88 88 N N/A 30.03 1017 10 16 N/A
7:35 am 07:35 Sunny 63 17.2 59 15.2 88 88 N N/A 30.03 1017 10 16 N/A
7:55 am 07:55 Sunny 67 19.5 62 16.7 84 84 N N/A 30.06 1018 10 16 N/A
8:15 am 08:15 Sunny 69 20.8 64 18 84 84 N N/A 30.06 1018 10 16 N/A
8:35 am 08:35 Sunny 69 20.8 64 17.9 84 84 N N/A 30.06 1018 10 16 N/A
8:55 am 08:55 Sunny 69 20.8 63 17.1 79 79 N N/A 30.06 1018 10 16 N/A
9:15 am 09:15 Sunny 72 22.3 63 17.3 73 73 N N/A 30.06 1018 10 16 N/A
9:35 am 09:35 Sunny 74 23.6 64 17.8 70 70 N N/A 30.06 1018 10 16 N/A
9:55 am 09:55 Sunny 74 23.6 63 17.1 67 67 N N/A 30.06 1018 10 16 N/A
10:15 am 10:15 Sunny 77 25.1 64 17.7 64 64 N N/A 30.06 1018 10 16 N/A
10:35 am 10:35 Sunny 77 25.1 61 16.1 57 57 N N/A 30.06 1018 10 16 N/A
10:55 am 10:55 Sunny 80 26.5 62 16.9 56 56 N N/A 30.06 1018 10 16 N/A
11:15 am 11:15 Sunny 80 26.5 59 15.2 50 50 N N/A 30.06 1018 10 16 N/A
11:35 am 11:35 Sunny 80 26.7 60 15.6 51 51 N N/A 30.06 1018 10 16 N/A
11:55 am 11:55 Sunny 81 27.3 57 14.1 44 44 N N/A 30.06 1018 10 16 N/A
12:15 pm 12:15 Sunny 82 28 55 12.6 39 39 N N/A 30.06 1018 10 16 N/A
12:35 pm 12:35 Partly Cloudy 82 28 55 12.8 39 39 ENE 6 9 30.06 1018 10 16 N/A
12:55 pm 12:55 Sunny 82 28 54 12.3 38 38 NE 3 6 30.06 1018 10 16 N/A
1:15 pm 13:15 Sunny 83 28.1 55 12.8 39 39 SE 3 6 30.03 1017 10 16 N/A
1:35 pm 13:35 Sunny 83 28.6 52 10.9 33 33 N N/A 30.00 1016 10 16 N/A
1:55 pm 13:55 Sunny 83 28.6 53 11.9 36 36 ENE 5 7 30.00 1016 10 16 N/A
2:15 pm 14:15 Sunny 84 29 53 11.6 34 34 SSE 5 7 30.00 1016 10 16 N/A
2:35 pm 14:35 Sunny 85 29.3 53 11.9 34 34 ENE 5 7 30.00 1016 10 16 N/A
2:55 pm 14:55 Sunny 85 29.2 53 11.6 34 34 NE 3 6 30.00 1016 10 16 N/A
3:15 pm 15:15 Sunny 84 29 54 12.1 35 35 N N/A 29.97 1015 10 16 N/A
3:35 pm 15:35 Sunny 85 29.3 53 11.8 34 34 ENE 6 9 29.97 1015 10 16 N/A
3:55 pm 15:55 Sunny 86 30.1 55 12.7 34 34 NNE 3 6 29.97 1015 10 16 N/A
4:15 pm 16:15 Sunny 85 29.3 54 12 34 34 NNW 5 7 29.97 1015 10 16 N/A
4:35 pm 16:35 Sunny 86 30 55 12.8 35 35 N 3 6 29.97 1015 10 16 N/A
4:55 pm 16:55 Sunny 85 29.3 52 11.3 33 33 N N/A 29.97 1015 10 16 N/A
5:15 pm 17:15 Sunny 87 30.6 56 13.1 34 34 N N/A 29.97 1015 10 16 N/A
5:35 pm 17:35 Sunny 85 29.3 54 12.2 35 35 N N/A 29.94 1014 10 16 N/A
5:55 pm 17:55 Sunny 85 29.3 55 12.8 36 36 N 3 6 29.94 1014 10 16 N/A
6:15 pm 18:15 Sunny 85 29.3 51 10.6 31 31 N N/A 29.94 1014 10 16 N/A
6:35 pm 18:35 Sunny 85 29.3 53 11.7 34 34 N N/A 29.94 1014 N/A N/A
6:55 pm 18:55 Sunny 84 29 52 11.3 33 33 N N/A 29.94 1014 10 16 N/A
7:15 pm 19:15 Sunny 83 28.6 56 13.6 40 40 N N/A 29.94 1014 10 16 N/A
7:35 pm 19:35 Sunny 82 28 57 14 42 42 ESE 6 9 29.94 1014 10 16 N/A
7:55 pm 19:55 Sunny 82 28 58 14.7 44 44 N N/A 29.94 1014 N/A N/A
8:15 pm 20:15 Sunny 81 27.2 55 12.9 41 41 E 3 6 29.97 1015 N/A N/A
8:35 pm 20:35 Sunny 80 26.6 56 13.1 43 43 E 3 6 29.97 1015 10 16 N/A
8:55 pm 20:55 Sunny 74 23.6 66 19.1 76 76 N N/A 29.97 1015 10 16 N/A
9:15 pm 21:15 Clear 74 23.6 67 19.7 79 79 N N/A 29.97 1015 10 16 N/A
9:35 pm 21:35 Clear 72 22.3 66 18.8 81 81 WNW 3 6 29.97 1015 10 16 N/A
9:55 pm 21:55 Clear 69 20.8 64 17.7 83 83 N N/A 30.00 1016 10 16 N/A
10:15 pm 22:15 Clear 69 20.8 64 17.6 82 82 N N/A 30.00 1016 10 16 N/A
10:35 pm 22:35 Clear 69 20.8 64 17.8 83 83 N N/A 30.00 1016 10 16 N/A
10:55 pm 22:55 Clear 69 20.8 64 17.9 84 84 N N/A 30.00 1016 10 16 N/A
11:15 pm 23:15 Clear 69 20.8 64 18 84 84 N N/A 30.00 1016 10 16 N/A
11:35 pm 23:35 Clear 69 20.8 65 18.1 85 85 N N/A 30.00 1016 10 16 N/A
11:55 pm 23:55 Clear 69 20.8 64 17.9 84 84 N N/A 30.00 1016 10 16 N/A

Powered by AerisWeather